Location: Killam
(52.7910°N, 111.8608°W)
Time: 06:01:49
(UTC+00:00)

Transit 2A - Pass Details

Date: 19 February 2026
Orbit: 590 x 954 km, 66.7° (Epoch: 14 March)

Event Time Altitude Azimuth Distance (km) Brightness Sun altitude
Rises 02:49:00 0° 317° (NW) 3,625 10.3 -19.2°
Reaches altitude 10° 02:51:45 10° 324° (NW) 2,656 9.4 -19.6°
Maximum altitude 02:57:41 45° 36° (NE) 1,207 6.8 -20.5°
Enters shadow 02:59:15 37° 75° (ENE) 1,340 6.8 -20.7°
